"Pseudo-MPEC" for CEFXDG2

Created 2026 Apr 17 10:35:03 UT using Find_Orb

Click here for an explanation of pseudo-MPECs

 
 Astrometry: 
     CEFXDG2*1C2026 03 28.41419613 35 43.033+12 44 25.84   ~3SAZ 20.78GVNEOCPG96
     CEFXDG2 1C2026 03 28.41981413 35 42.295+12 44 26.30   ~3SAZ 21.96GVNEOCPG96
     CEFXDG2 1C2026 03 28.42543713 35 41.629+12 44 28.50   ~3SAZ 21.94GVNEOCPG96
     CEFXDG2 1C2026 03 28.43106413 35 40.862+12 44 29.76   ~3SAZ 22.01GVNEOCPG96

Station data:
(G96) Mt. Lemmon Survey  (N32.442729 W110.788720)  US/Arizona.  Observer E.
   J. Christensen. Measurers T. Beuden, V. F. Carvajal, D. Fay, J. B.
   Fazekas, D. C. Fuls, A. R. Gibbs, A. D. Grauer, H. Gröller, J. K. Hogan,
   R. A. Kowalski, S. M. Larson, G. J. Leonard, D. Rankin, R. L. Seaman, F.
   C. Shelly, K. W. Wierzchoś. 1.5-m reflector + 10K CCD.

Orbital elements:  CEFXDG2
   Perihelion 2025 Nov 30.263147 +/- 210 TT =  6:18:55.9 (JD 2461009.763147)
Epoch 2026 Mar 28.0 TT = JDT 2461127.5   Earth MOID: 0.2301   Ju: 0.2943
M  13.220132775 +/- 80              Ve: 0.0868                   AutoNEOCP
n   0.112285426 +/- 0.182           Peri.    4.153614 +/- 56
a   4.255204665 +/- 4.6             Node    65.309179 +/- 42
e   0.86173229 +/- 0.237            Incl.   13.546525 +/- 42
P   8.77770                H 19.61  G  0.15   U 11.6  SR
q 0.588357388 +/- 0.735    Q 7.922051943 +/- 17           (J2000 ecliptic)
From 4 observations 2026 Mar. 28 (24.3 min); mean residual 0".33
Residuals in arcseconds: 
260328 G96  .02+  .33+    260328 G96  .48+  .20+    
260328 G96  .28-  .60-    260328 G96  .23-  .06+    

Ephemerides (geocentric):
Date (UTC) HH   RA             Dec           delta  r     elong  mag " sig PA
---- --------  ------------   ------------  ------ ------ -----  --- --------
2026 04 17 11  12 59 50.185   +13 01 03.58  1.3027 2.2505 154.5 22.6  38d  99
2026 04 17 12  12 59 46.629   +13 00 58.04  1.3033 2.2510 154.4 22.6  38d  99
2026 04 17 13  12 59 43.077   +13 00 52.48  1.3039 2.2514 154.4 22.6  38d  99
2026 04 17 14  12 59 39.530   +13 00 46.89  1.3046 2.2519 154.4 22.6  38d  99
2026 04 17 15  12 59 35.987   +13 00 41.27  1.3052 2.2524 154.3 22.6  38d  99
2026 04 17 16  12 59 32.448   +13 00 35.62  1.3058 2.2528 154.3 22.6  38d  99
2026 04 17 17  12 59 28.914   +13 00 29.95  1.3064 2.2533 154.3 22.6  38d  99
2026 04 17 18  12 59 25.383   +13 00 24.25  1.3071 2.2538 154.2 22.6  38d  99
2026 04 17 19  12 59 21.857   +13 00 18.52  1.3077 2.2543 154.2 22.6  38d  99
2026 04 17 20  12 59 18.336   +13 00 12.77  1.3083 2.2547 154.2 22.7  38d  99
2026 04 17 21  12 59 14.819   +13 00 06.99  1.3089 2.2552 154.1 22.7  38d  99
2026 04 17 22  12 59 11.306   +13 00 01.18  1.3095 2.2557 154.1 22.7  38d  99
2026 04 17 23  12 59 07.797   +12 59 55.35  1.3102 2.2562 154.1 22.7  38d  99
2026 04 18 00  12 59 04.293   +12 59 49.49  1.3108 2.2566 154.0 22.7  38d  99
2026 04 18 01  12 59 00.793   +12 59 43.60  1.3114 2.2571 154.0 22.7  38d  99
2026 04 18 02  12 58 57.297   +12 59 37.69  1.3120 2.2576 154.0 22.7  38d  99
2026 04 18 03  12 58 53.806   +12 59 31.75  1.3127 2.2581 153.9 22.7  38d  99
2026 04 18 04  12 58 50.319   +12 59 25.78  1.3133 2.2585 153.9 22.7  38d  99
2026 04 18 05  12 58 46.836   +12 59 19.79  1.3139 2.2590 153.9 22.7  38d  99
2026 04 18 06  12 58 43.358   +12 59 13.77  1.3145 2.2595 153.8 22.7  38d  99
2026 04 18 07  12 58 39.884   +12 59 07.73  1.3152 2.2599 153.8 22.7  38d  99
2026 04 18 08  12 58 36.414   +12 59 01.65  1.3158 2.2604 153.8 22.7  38d  99
2026 04 18 09  12 58 32.949   +12 58 55.56  1.3164 2.2609 153.7 22.7  38d  99
2026 04 18 10  12 58 29.488   +12 58 49.43  1.3171 2.2614 153.7 22.7  38d  99
2026 04 18 11  12 58 26.031   +12 58 43.28  1.3177 2.2618 153.7 22.7  38d  99
2026 04 18 12  12 58 22.579   +12 58 37.10  1.3183 2.2623 153.6 22.7  38d  99
2026 04 18 13  12 58 19.131   +12 58 30.90  1.3190 2.2628 153.6 22.7  38d  99
2026 04 18 14  12 58 15.687   +12 58 24.67  1.3196 2.2633 153.6 22.7  38d  99
2026 04 18 15  12 58 12.247   +12 58 18.42  1.3202 2.2637 153.5 22.7  38d  99
2026 04 18 16  12 58 08.812   +12 58 12.14  1.3208 2.2642 153.5 22.7  38d  99
2026 04 18 17  12 58 05.382   +12 58 05.83  1.3215 2.2647 153.5 22.7  38d  99
2026 04 18 18  12 58 01.955   +12 57 59.49  1.3221 2.2651 153.4 22.7  38d  99
2026 04 18 19  12 57 58.533   +12 57 53.13  1.3227 2.2656 153.4 22.7  38d  99
2026 04 18 20  12 57 55.116   +12 57 46.75  1.3234 2.2661 153.3 22.7  38d  99
2026 04 18 21  12 57 51.702   +12 57 40.34  1.3240 2.2666 153.3 22.7  38d  99
2026 04 18 22  12 57 48.293   +12 57 33.90  1.3246 2.2670 153.3 22.7  38d  99
2026 04 18 23  12 57 44.889   +12 57 27.44  1.3253 2.2675 153.2 22.7  38d  99
2026 04 19 00  12 57 41.488   +12 57 20.95  1.3259 2.2680 153.2 22.7  39d  99
2026 04 19 01  12 57 38.092   +12 57 14.43  1.3265 2.2685 153.2 22.7  39d  99
2026 04 19 02  12 57 34.701   +12 57 07.89  1.3272 2.2689 153.1 22.7  39d  99
2026 04 19 03  12 57 31.313   +12 57 01.33  1.3278 2.2694 153.1 22.7  39d  99
2026 04 19 04  12 57 27.931   +12 56 54.73  1.3285 2.2699 153.1 22.7  39d  99
2026 04 19 05  12 57 24.552   +12 56 48.12  1.3291 2.2703 153.0 22.7  39d  99
2026 04 19 06  12 57 21.178   +12 56 41.47  1.3297 2.2708 153.0 22.7  39d  99
2026 04 19 07  12 57 17.808   +12 56 34.80  1.3304 2.2713 153.0 22.7  39d  99
2026 04 19 08  12 57 14.442   +12 56 28.11  1.3310 2.2718 152.9 22.7  39d  99
2026 04 19 09  12 57 11.081   +12 56 21.39  1.3316 2.2722 152.9 22.7  39d  99
2026 04 19 10  12 57 07.724   +12 56 14.64  1.3323 2.2727 152.9 22.7  39d  99